Hourly Data Report for October 26, 2013

All times are specified in Local Standard Time (LST). Add 1 hour to adjust for Daylight Saving Time where and when it is observed.

MONCTON INTL A
NEW BRUNSWICK

46°06'44.000" N
64°40'43.000" W
70.70 m
8103201
71705
YQM

Download Data

Hourly Data (October 2013)
Hourly Data Report for October 26, 2013
Temp Definition
°C
Dew Point Temp Definition
°C
Rel Hum Definition
%
Wind Dir Definition
10's deg

Wind Spd Definition
km/h
Visibility Definition
km
Stn Press Definition
kPa
Hmdx Definition


Wind Chill Definition


Weather Definition


TIME
00:00 Legend Double Dagger 3.3 -0.9 74 24 16 24.1 100.41     LegendNANA
01:00 Legend Double Dagger 3.6 -0.8 73 23 12 24.1 100.45     LegendNANA
02:00 Legend Double Dagger 3.2 -0.6 76 23 13 24.1 100.48     Mostly Cloudy
03:00 Legend Double Dagger 1.8 -1.3 80 23 14 24.1 100.49     LegendNANA
04:00 Legend Double Dagger 1.6 -1.7 79 24 18 24.1 100.51     LegendNANA
05:00 Legend Double Dagger 0.4 -1.8 85 22 14 24.1 100.55     Clear
06:00 Legend Double Dagger 0.1 -1.8 87 23 13 24.1 100.58     LegendNANA
07:00 Legend Double Dagger -0.5 -2.1 89 24 13 24.1 100.63   -5 LegendNANA
08:00 Legend Double Dagger 1.0 -1.4 84 22 17 24.1 100.71     Clear
09:00 Legend Double Dagger 3.0 -0.8 76 25 22 24.1 100.74     LegendNANA
10:00 Legend Double Dagger 4.4 -0.4 71 26 19 24.1 100.72     LegendNANA
11:00 Legend Double Dagger 6.2 -0.1 64 24 22 24.1 100.73     Mainly Clear
12:00 Legend Double Dagger 7.1 -0.1 60 23 20 24.1 100.67     LegendNANA
13:00 Legend Double Dagger 7.1 -1.8 53 24 26 24.1 100.63     LegendNANA
14:00 Legend Double Dagger 7.2 -2.8 49 24 26 24.1 100.64     Mostly Cloudy
15:00 Legend Double Dagger 6.5 -3.2 50 23 21 24.1 100.65     LegendNANA
16:00 Legend Double Dagger 5.8 -3.3 52 23 21 24.1 100.65     LegendNANA
17:00 Legend Double Dagger 5.2 -3.4 54 21 18 24.1 100.65     Mostly Cloudy
18:00 Legend Double Dagger 4.3 -3.0 59 20 13 24.1 100.65     LegendNANA
19:00 Legend Double Dagger 4.1 -2.5 62 16 12 24.1 100.64     LegendNANA
20:00 Legend Double Dagger 3.9 -2.1 65 13 10 24.1 100.58     Cloudy
21:00 Legend Double Dagger 3.7 1.1 83 17 12 16.1 100.62     Rain
22:00 Legend Double Dagger 3.5 2.2 91 13 7 19.3 100.56     Rain
23:00 Legend Double Dagger 4.3 3.3 93 19 10 19.3 100.50     Rain

Notes on Data Quality.

Legend

  • E = Estimated
  • M = Missing
  • NA = Not Available
  • ‡ = Partner data that is not subject to review by the National Climate Archives
Date modified: